Meteo orario Alifanov

Oggi, 25 Ottobre, Domenica

Tempo Temperatura Precipitazioni Vento Pressione Umidità
00:00 +12°C° 0 mm 3 m/s 755 mm Hg 90%
01:00 +12°C° 0 mm 3 m/s 755 mm Hg 92%
02:00 +12°C° 0 mm 3 m/s 755 mm Hg 93%
03:00 +12°C° 0 mm 3 m/s 755 mm Hg 95%
04:00 +13°C° 0 mm 4 m/s 755 mm Hg 93%
05:00 +13°C° 0 mm 4 m/s 755 mm Hg 91%
06:00 +14°C° 0 mm 4 m/s 755 mm Hg 89%
07:00 +14°C° 0 mm 5 m/s 755 mm Hg 78%
08:00 +15°C° 0 mm 5 m/s 756 mm Hg 67%
09:00 +15°C° 0 mm 5 m/s 756 mm Hg 56%
10:00 +16°C° 0 mm 5 m/s 756 mm Hg 53%
11:00 +17°C° 0 mm 5 m/s 756 mm Hg 49%
12:00 +19°C° 0 mm 5 m/s 756 mm Hg 45%
13:00 +20°C° 0 mm 5 m/s 756 mm Hg 46%
14:00 +20°C° 0 mm 6 m/s 757 mm Hg 47%
15:00 +20°C° 0 mm 6 m/s 757 mm Hg 49%
16:00 +17°C° 0 mm 5 m/s 757 mm Hg 54%
17:00 +17°C° 0 mm 4 m/s 757 mm Hg 60%
18:00 +14°C° 0 mm 3 m/s 758 mm Hg 66%
19:00 +13°C° 0 mm 3 m/s 758 mm Hg 70%
20:00 +11°C° 0 mm 3 m/s 759 mm Hg 74%
21:00 +10°C° 0 mm 3 m/s 760 mm Hg 78%
22:00 +10°C° 0 mm 2 m/s 760 mm Hg 80%
23:00 +9°C° 0 mm 2 m/s 760 mm Hg 82%

Domani, 26 Ottobre, Lunedi

Tempo Temperatura Precipitazioni Vento Pressione Umidità
00:00 +8°C° 0 mm 2 m/s 761 mm Hg 84%
01:00 +8°C° 0 mm 2 m/s 761 mm Hg 85%
02:00 +8°C° 0 mm 2 m/s 761 mm Hg 86%
03:00 +7°C° 0 mm 2 m/s 762 mm Hg 86%
04:00 +7°C° 0 mm 2 m/s 762 mm Hg 87%
05:00 +7°C° 0 mm 2 m/s 762 mm Hg 87%
06:00 +6°C° 0 mm 2 m/s 762 mm Hg 88%
07:00 +7°C° 0 mm 2 m/s 762 mm Hg 82%
08:00 +9°C° 0 mm 2 m/s 763 mm Hg 75%
09:00 +10°C° 0 mm 2 m/s 763 mm Hg 69%
10:00 +12°C° 0 mm 2 m/s 763 mm Hg 62%
11:00 +14°C° 0 mm 2 m/s 763 mm Hg 55%
12:00 +16°C° 0 mm 2 m/s 763 mm Hg 47%
13:00 +16°C° 0 mm 2 m/s 763 mm Hg 45%
14:00 +16°C° 0 mm 2 m/s 762 mm Hg 43%
15:00 +17°C° 0 mm 3 m/s 762 mm Hg 41%
16:00 +14°C° 0 mm 3 m/s 762 mm Hg 46%
17:00 +13°C° 0 mm 3 m/s 762 mm Hg 51%
18:00 +11°C° 0 mm 3 m/s 762 mm Hg 56%
19:00 +11°C° 0 mm 3 m/s 762 mm Hg 58%
20:00 +10°C° 0 mm 3 m/s 763 mm Hg 60%
21:00 +10°C° 0 mm 3 m/s 763 mm Hg 62%
22:00 +10°C° 0 mm 3 m/s 763 mm Hg 63%
23:00 +9°C° 0 mm 3 m/s 763 mm Hg 64%

Dopodomani, 27 Ottobre, Martedi

Tempo Temperatura Precipitazioni Vento Pressione Umidità
00:00 +9°C° 0 mm 3 m/s 763 mm Hg 64%
01:00 +9°C° 0 mm 3 m/s 763 mm Hg 65%
02:00 +9°C° 0 mm 3 m/s 763 mm Hg 66%
03:00 +7°C° 0 mm 4 m/s 763 mm Hg 67%
04:00 +8°C° 0 mm 3 m/s 764 mm Hg 67%
05:00 +8°C° 0 mm 3 m/s 764 mm Hg 67%
06:00 +8°C° 0 mm 3 m/s 764 mm Hg 67%
07:00 +8°C° 0 mm 4 m/s 764 mm Hg 65%
08:00 +9°C° 0 mm 5 m/s 764 mm Hg 62%
09:00 +10°C° 0 mm 5 m/s 764 mm Hg 60%
10:00 +11°C° 0 mm 6 m/s 765 mm Hg 55%
11:00 +13°C° 0 mm 6 m/s 765 mm Hg 50%
12:00 +14°C° 0 mm 6 m/s 765 mm Hg 45%
13:00 +14°C° 0 mm 6 m/s 765 mm Hg 45%
14:00 +14°C° 0 mm 6 m/s 765 mm Hg 45%
15:00 +14°C° 0 mm 6 m/s 765 mm Hg 45%
16:00 +13°C° 0 mm 6 m/s 765 mm Hg 49%
17:00 +10°C° 0 mm 5 m/s 765 mm Hg 52%
18:00 +9°C° 0 mm 5 m/s 765 mm Hg 56%
19:00 +9°C° 0 mm 5 m/s 765 mm Hg 58%
20:00 +8°C° 0 mm 5 m/s 766 mm Hg 60%
21:00 +8°C° 0 mm 5 m/s 766 mm Hg 62%
22:00 +8°C° 0 mm 5 m/s 766 mm Hg 63%
23:00 +8°C° 0 mm 6 m/s 766 mm Hg 64%

28 Ottobre, Mercoledi

Tempo Temperatura Precipitazioni Vento Pressione Umidità
00:00 +7°C° 0 mm 6 m/s 766 mm Hg 66%
01:00 +7°C° 0 mm 6 m/s 766 mm Hg 67%
02:00 +5°C° 0 mm 6 m/s 766 mm Hg 68%
03:00 +5°C° 0 mm 6 m/s 766 mm Hg 69%
04:00 +4°C° 0 mm 6 m/s 766 mm Hg 68%
05:00 +4°C° 0 mm 6 m/s 766 mm Hg 67%
06:00 +4°C° 0 mm 6 m/s 766 mm Hg 67%
07:00 +4°C° 0 mm 7 m/s 766 mm Hg 60%
08:00 +5°C° 0 mm 7 m/s 766 mm Hg 53%
09:00 +6°C° 0 mm 8 m/s 767 mm Hg 45%
10:00 +7°C° 0 mm 8 m/s 766 mm Hg 39%
11:00 +9°C° 0 mm 8 m/s 766 mm Hg 33%
12:00 +11°C° 0 mm 9 m/s 766 mm Hg 27%
13:00 +11°C° 0 mm 9 m/s 766 mm Hg 27%
14:00 +11°C° 0 mm 9 m/s 766 mm Hg 27%
15:00 +11°C° 0 mm 9 m/s 765 mm Hg 26%
16:00 +10°C° 0 mm 8 m/s 765 mm Hg 29%
17:00 +9°C° 0 mm 7 m/s 766 mm Hg 31%
18:00 +7°C° 0 mm 6 m/s 766 mm Hg 33%
19:00 +6°C° 0 mm 7 m/s 766 mm Hg 36%
20:00 +6°C° 0 mm 7 m/s 765 mm Hg 39%
21:00 +6°C° 0 mm 7 m/s 765 mm Hg 41%
22:00 +6°C° 0 mm 7 m/s 765 mm Hg 45%
23:00 +5°C° 0 mm 7 m/s 765 mm Hg 49%

29 Ottobre, Giovedi

Tempo Temperatura Precipitazioni Vento Pressione Umidità
00:00 +5°C° 0 mm 7 m/s 765 mm Hg 53%
01:00 +5°C° 0 mm 7 m/s 765 mm Hg 57%
02:00 +4°C° 0 mm 7 m/s 764 mm Hg 62%
03:00 +4°C° 0 mm 7 m/s 764 mm Hg 66%
04:00 +4°C° 0 mm 7 m/s 764 mm Hg 69%
05:00 +3°C° 0 mm 7 m/s 764 mm Hg 73%
06:00 +3°C° 0 mm 7 m/s 764 mm Hg 76%
07:00 +4°C° 0 mm 7 m/s 764 mm Hg 71%
08:00 +5°C° 0 mm 8 m/s 764 mm Hg 67%
09:00 +6°C° 0 mm 8 m/s 764 mm Hg 62%
10:00 +9°C° 0 mm 8 m/s 764 mm Hg 58%
11:00 +10°C° 0 mm 8 m/s 764 mm Hg 53%
12:00 +11°C° 0 mm 9 m/s 763 mm Hg 48%
13:00 +12°C° 0 mm 9 m/s 763 mm Hg 47%
14:00 +12°C° 0 mm 9 m/s 763 mm Hg 45%
15:00 +13°C° 0 mm 9 m/s 762 mm Hg 44%
16:00 +12°C° 0 mm 8 m/s 762 mm Hg 45%
17:00 +11°C° 0 mm 7 m/s 762 mm Hg 46%
18:00 +10°C° 0 mm 6 m/s 762 mm Hg 47%
19:00 +10°C° 0 mm 6 m/s 762 mm Hg 47%
20:00 +10°C° 0 mm 6 m/s 762 mm Hg 48%
21:00 +10°C° 0 mm 7 m/s 762 mm Hg 49%
22:00 +9°C° 0 mm 6 m/s 762 mm Hg 55%
23:00 +9°C° 0 mm 6 m/s 762 mm Hg 61%

30 Ottobre, Venerdi

Tempo Temperatura Precipitazioni Vento Pressione Umidità
00:00 +9°C° 0 mm 6 m/s 762 mm Hg 67%
01:00 +8°C° 0 mm 6 m/s 762 mm Hg 69%
02:00 +8°C° 0 mm 6 m/s 762 mm Hg 72%
03:00 +8°C° 0 mm 5 m/s 762 mm Hg 74%
04:00 +8°C° 0 mm 5 m/s 762 mm Hg 73%
05:00 +8°C° 0 mm 5 m/s 762 mm Hg 72%
06:00 +8°C° 0 mm 6 m/s 762 mm Hg 71%
07:00 +9°C° 0 mm 6 m/s 762 mm Hg 69%
08:00 +9°C° 0 mm 6 m/s 762 mm Hg 67%
09:00 +10°C° 0 mm 7 m/s 762 mm Hg 65%
10:00 +11°C° 0 mm 7 m/s 762 mm Hg 64%
11:00 +12°C° 0 mm 7 m/s 761 mm Hg 62%
12:00 +14°C° 0 mm 6 m/s 761 mm Hg 60%
13:00 +14°C° 0 mm 6 m/s 761 mm Hg 61%
14:00 +14°C° 0 mm 6 m/s 761 mm Hg 61%
15:00 +15°C° 0 mm 6 m/s 761 mm Hg 62%
16:00 +14°C° 0 mm 5 m/s 761 mm Hg 66%
17:00 +13°C° 0 mm 4 m/s 761 mm Hg 69%
18:00 +12°C° 0 mm 3 m/s 761 mm Hg 73%
19:00 +12°C° 0 mm 4 m/s 760 mm Hg 73%
20:00 +12°C° 0 mm 4 m/s 760 mm Hg 73%
21:00 +12°C° 0 mm 4 m/s 760 mm Hg 73%
22:00 +12°C° 0.2 mm 4 m/s 760 mm Hg 76%
23:00 +12°C° 0.2 mm 4 m/s 760 mm Hg 78%
Mostrare altro

Abbiamo bisogno del tuo consenso

Meteoprog e i nostri fornitori di servizi possono memorizzare e accedere a dati personali come cookie, identificatori di dispositivi o altre tecnologie simili sul tuo dispositivo e possono elaborare tali dati per personalizzare i contenuti e gli annunci, nonché fornire funzionalità dei social media e analizzarne il traffico.

  • Archiviare e/o accedere alle informazioni sul tuo dispositivo

    Cookie, identificatori di dispositivi o altre informazioni possono essere memorizzati o resi accessibili sul tuo dispositivo per le finalità sopra indicate.

  • Annunci e contenuti personalizzati, misurazione di annunci e contenuti, approfondimenti sul pubblico e sviluppo di prodotti

    Gli annunci e i contenuti possono essere personalizzati in base a un profilo. È possibile aggiungere più dati per personalizzare meglio annunci e contenuti. È possibile misurare il rendimento degli annunci e dei contenuti. È possibile ricavare informazioni sul pubblico che ha visto gli annunci e i contenuti. Tali dati possono essere utilizzati per sviluppare o migliorare l'esperienza, i sistemi e il software dell'utente.

Cliccando su “Accetto”, acconsenti all'uso di cookie, identificatori di dispositivo, web beacon o altre tecnologie simili. Puoi modificare le impostazioni nel browser del tuo dispositivo.

Per determinati scopi, è possibile fare affidamento su interessi legali, piuttosto che sul consenso. Puoi approfondire questo argomento consultando la nostra Informativa sulla privacy e sui cookie.